Вернуться в каталог

STARLINK-36100

АктивенСвязьVLEO
NORAD 66942·PAYLOAD·🇺🇸 United States

Запущен Dec 7, 2025 с Vandenberg Space Force Base

Loading…

Ближайшие Пролёты (ближайшие 24 часа)

TLE

СвежийSource: CelesTrak SupGP

Эпоха: Sep 15, 2026, 02:48 UTC

1 66942C 25286T   26258.11715278 -.00057633  00000+0 -17027-2 0  2587
2 66942  53.1584 195.0053 0001324  88.1225 119.7293 15.34420274    19

Отслеживайте STARLINK-36100 в реальном времени с AllMySat

Download on the App Store